EW1145 Weather Reports


Display with metric or nautical units.
time (UTC)temp
F
wind
direction
speed
MPH
gust
MPH
rain 1hr
in
rain 24hr
in
rain mn
in
humidity
%
barometer
mb
20260905101507 51 178 0.0 0.0 0.00 0.18 0.00 98 1016.5
20260905100006 51 178 0.0 0.0 0.00 0.18 0.00 98 1016.6
20260905094509 51 178 0.0 0.0 0.00 0.18 0.00 97 1016.5
20260905093004 51 178 0.0 0.0 0.00 0.18 0.00 97 1016.5
20260905091502 51 178 0.0 0.0 0.00 0.18 0.00 97 1016.3
20260905090001 51 178 0.0 0.0 0.00 0.18 0.00 97 1016.3
20260905084608 51 178 0.0 0.0 0.00 0.18 0.00 97 1016.2
20260905083058 51 178 0.0 0.0 0.00 0.18 0.00 97 1016.2
20260905081559 51 178 0.0 0.0 0.00 0.18 0.00 97 1016.1
20260905080101 51 178 0.0 0.0 0.00 0.18 0.00 97 1016.1
20260905074559 51 178 0.0 0.0 0.00 0.18 0.00 97 1015.9
20260905073100 51 178 0.0 0.0 0.00 0.18 0.00 97 1015.9
20260905071553 51 178 0.0 0.0 0.00 0.18 0.00 96 1015.9
20260905070057 51 178 0.0 0.0 0.00 0.18 0.18 96 1015.8
20260905064549 52 178 0.0 0.0 0.00 0.18 0.18 96 1015.6
20260905063047 52 178 0.0 0.0 0.00 0.18 0.18 95 1015.6
20260905061612 52 178 0.0 0.0 0.00 0.18 0.18 95 1015.4
20260905060051 53 178 0.0 0.0 0.00 0.18 0.18 95 1015.4
20260905054545 53 178 0.0 0.0 0.00 0.18 0.18 95 1015.4
20260905053046 54 178 0.0 0.0 0.00 0.18 0.18 95 1015.5
20260905051545 54 178 0.0 0.0 0.00 0.18 0.18 94 1015.4
20260905050044 55 178 0.0 0.0 0.00 0.18 0.18 94 1015.4
20260905044544 55 178 0.0 0.0 0.00 0.18 0.18 94 1015.4
20260905043042 55 178 0.0 0.0 0.00 0.18 0.18 94 1015.4
20260905041541 55 178 0.0 0.0 0.00 0.18 0.18 94 1015.3
20260905040040 55 178 0.0 0.0 0.00 0.18 0.18 94 1015.2
20260905034547 55 178 0.0 0.0 0.00 0.18 0.18 93 1015.0
20260905033036 56 178 0.0 0.0 0.00 0.18 0.18 92 1014.8
20260905031534 56 178 0.0 0.0 0.00 0.18 0.18 91 1014.5
20260905030037 57 178 0.0 0.0 0.00 0.18 0.18 89 1014.4
20260905024531 58 178 0.0 0.0 0.00 0.18 0.18 87 1014.3
20260905023033 59 178 0.0 0.0 0.00 0.18 0.18 86 1014.3
20260905021530 60 178 0.0 0.0 0.00 0.18 0.18 84 1014.2
20260905020035 61 178 0.0 0.0 0.00 0.18 0.18 82 1014.1
20260905014535 61 178 0.0 0.0 0.00 0.18 0.18 79 1014.0
20260905013030 62 178 0.0 0.0 0.00 0.18 0.18 79 1013.8
20260905011527 62 178 0.0 1.0 0.00 0.18 0.18 79 1013.7
20260905010026 62 178 1.0 4.0 0.00 0.18 0.18 77 1013.8
20260905004537 62 178 0.0 1.0 0.00 0.18 0.18 78 1013.9
20260905003031 62 178 0.0 0.0 0.00 0.18 0.18 80 1014.0
20260905001543 62 178 0.0 0.0 0.00 0.18 0.18 79 1013.9
20260905000023 62 178 0.0 3.0 0.00 0.18 0.18 80 1013.8
20260904234532 63 178 0.0 0.0 0.00 0.18 0.18 78 1013.6
20260904233037 63 178 0.0 3.0 0.00 0.18 0.18 80 1013.4
20260904231523 63 178 0.0 5.0 0.00 0.18 0.18 80 1013.2
20260904230017 64 178 0.0 0.0 0.00 0.18 0.18 78 1013.2
20260904224516 64 178 0.0 0.0 0.00 0.18 0.18 79 1013.1
20260904223015 64 178 0.0 0.0 0.00 0.18 0.18 78 1013.0
20260904221515 64 178 0.0 6.0 0.01 0.18 0.18 76 1012.9
20260904220014 64 178 0.0 4.0 0.01 0.18 0.18 77 1012.9
20260904214511 63 178 0.0 1.0 0.02 0.18 0.18 82 1012.9
20260904213020 62 178 0.0 0.0 0.02 0.18 0.18 82 1012.9
20260904211509 62 178 0.0 0.0 0.01 0.17 0.17 85 1012.8
20260904210010 62 178 0.0 0.0 0.01 0.19 0.17 80 1012.7
20260904204508 62 178 0.0 1.0 0.00 0.18 0.16 78 1012.6
20260904203007 63 313 0.0 1.0 0.00 0.18 0.16 81 1012.6
20260904201504 62 301 0.0 4.0 0.00 0.18 0.16 83 1012.6
20260904200001 60 304 1.0 4.0 0.00 0.34 0.16 91 1012.7
20260904194559 60 304 0.0 6.0 0.00 0.34 0.16 88 1012.9
20260904193118 60 335 0.0 0.0 0.01 0.34 0.16 84 1013.0
20260904191557 60 335 0.0 0.0 0.01 0.34 0.16 86 1013.1
20260904190054 59 331 0.0 0.0 0.01 0.37 0.16 88 1013.2
20260904184552 58 214 0.0 1.0 0.01 0.37 0.16 88 1013.2
20260904183051 58 214 0.0 1.0 0.00 0.36 0.15 89 1013.1
20260904181548 58 214 0.0 0.0 0.00 0.36 0.15 91 1012.9
20260904180048 57 214 0.0 1.0 0.00 0.37 0.15 91 1012.8
20260904174542 57 214 0.0 3.0 0.00 0.37 0.15 94 1012.7
20260904173049 56 214 0.0 0.0 0.00 0.37 0.15 96 1012.6
20260904171538 55 214 0.0 0.0 0.00 0.37 0.15 95 1012.6
20260904170036 55 214 0.0 0.0 0.00 0.37 0.15 97 1012.5
20260904164536 55 214 0.0 1.0 0.00 0.37 0.15 98 1012.5
20260904163035 54 214 0.0 0.0 0.00 0.37 0.15 98 1012.4
20260904161534 54 214 0.0 0.0 0.00 0.37 0.15 98 1012.3
20260904160033 54 214 0.0 0.0 0.00 0.40 0.15 98 1012.3
20260904154532 54 214 0.0 0.0 0.00 0.40 0.15 98 1012.3
20260904153031 53 214 0.0 0.0 0.00 0.40 0.15 98 1012.2
20260904151530 53 214 0.0 0.0 0.00 0.40 0.15 98 1012.1
20260904150034 53 214 0.0 0.0 0.00 0.45 0.15 98 1011.9
20260904144526 53 214 0.0 0.0 0.00 0.45 0.15 98 1011.7
20260904143030 53 214 0.0 0.0 0.00 0.45 0.15 98 1011.5
20260904141524 53 214 0.0 0.0 0.02 0.45 0.15 98 1011.4
20260904140022 53 214 0.0 0.0 0.03 0.53 0.15 98 1011.2
20260904134520 53 214 0.0 0.0 0.04 0.53 0.15 97 1011.1
20260904133020 53 214 0.0 0.0 0.07 0.53 0.15 97 1011.0
20260904131519 53 214 0.0 0.0 0.08 0.51 0.13 97 1011.0
20260904130017 53 214 0.0 0.0 0.09 0.59 0.12 97 1010.8
20260904124516 53 214 0.0 0.0 0.10 0.57 0.11 97 1010.7
20260904123015 53 214 0.0 0.0 0.07 0.55 0.08 97 1010.7
20260904121514 53 214 0.0 0.0 0.04 0.52 0.05 97 1010.6
20260904120013 53 214 0.0 0.0 0.02 0.54 0.03 97 1010.6
20260904114510 53 214 0.0 0.0 0.01 0.52 0.01 97 1010.4
20260904113009 53 214 0.0 0.0 0.01 0.52 0.01 97 1010.2
20260904111508 53 214 0.0 0.0 0.01 0.52 0.01 97 1010.1
20260904110007 52 214 0.0 0.0 0.01 0.52 0.01 97 1010.1
20260904104506 52 214 0.0 0.0 0.00 0.51 0.00 97 1010.1
20260904103006 52 214 0.0 0.0 0.00 0.51 0.00 97 1010.0